Weather History for Tupelo, MS

Change the Weather History Date:

Thursday, February 21, 2013

  Actual Average Record
Temperature  
Mean Temperature 45 °F 48 °F  
Max Temperature 54 °F 58 °F 77 °F (1981)
Min Temperature 36 °F 37 °F 14 °F (1977)
Degree Days  
Heating Degree Days 20 17  
Month to date heating degree days 421 420  
Since 1 July heating degree days 2098 2316  
Cooling Degree Days 0 0  
Month to date cooling degree days 0 0  
Year to date cooling degree days 6 1  
Moisture  
Dew Point 37 °F    
Average Humidity 63    
Maximum Humidity 93    
Minimum Humidity 32    
Precipitation  
Precipitation 0.93 in 0.19 in 2.67 in (1971)
Month to date precipitation 3.14 3.61  
Year to date precipitation 11.85 8.09  
Snow  
Snow 0.00 in 0.00 in 0.50 in (1978)
Month to date snowfall T 0.5  
Since 1 July snowfall T 1.7  
Snow Depth 0.00 in    
Sea Level Pressure  
Sea Level Pressure 29.92 in    
Wind  
Wind Speed 10 mph (SSE)    
Max Wind Speed 23 mph    
Max Gust Speed 31 mph    
Visibility 8 miles    
Events Rain , Thunderstorm    
T = Trace of Precipitation, MM = Missing Value Source: NWS Daily Summary

Daily Weather History Graph

Daily Weather History Graph

Search for Another Location

Airport:

Trip Planner

Search our weather history database for the weather conditions in past years. The results will help you decide how hot, cold, wet, or windy it might be!

Date:

Astronomy

Feb. 21, 2013 Rise Set
Actual Time 6:33 AM CST 5:44 PM CST
Civil Twilight 6:07 AM CST 6:09 PM CST
Nautical Twilight 5:38 AM CST 6:39 PM CST
Astronomical Twilight 5:09 AM CST 7:08 PM CST
Moon 2:05 PM CST (2/21) 3:30 AM CST (2/21)
Length of Visible Light 12h 02m
Length of Day
11h 11m
Waxing Gibbous, 84% of the Moon is Illuminated
Feb 21
Waxing Gibbous
Feb 25
Full
Mar 4
Last Quarter
Mar 11
New
Mar 19
First Quarter

Hourly Weather History & Observations

Time (CST) Temp. Windchill Dew Point Humidity Pressure Visibility Wind Dir Wind Speed Gust Speed Precip Events Conditions
12:53 AM 37.9 °F 33.5 °F 21.9 °F 53% 30.20 in 10.0 mi NE 5.8 mph - N/A   Overcast
1:53 AM 37.0 °F 31.6 °F 21.0 °F 52% 30.16 in 10.0 mi East 6.9 mph - N/A   Overcast
2:53 AM 37.0 °F 31.6 °F 21.9 °F 54% 30.16 in 10.0 mi East 6.9 mph - N/A   Overcast
3:53 AM 37.0 °F 30.4 °F 23.0 °F 57% 30.14 in 10.0 mi East 9.2 mph - N/A   Overcast
4:53 AM 37.0 °F 29.8 °F 23.0 °F 57% 30.14 in 10.0 mi East 10.4 mph - N/A   Overcast
5:53 AM 37.0 °F 30.4 °F 23.0 °F 57% 30.14 in 10.0 mi ENE 9.2 mph - N/A   Overcast
6:53 AM 37.0 °F 30.4 °F 23.0 °F 57% 30.14 in 10.0 mi East 9.2 mph - N/A   Overcast
7:53 AM 39.0 °F 32.3 °F 21.9 °F 50% 30.13 in 10.0 mi ESE 10.4 mph - N/A   Overcast
8:53 AM 39.9 °F 35.8 °F 21.9 °F 49% 30.12 in 10.0 mi ESE 5.8 mph - N/A   Overcast
9:53 AM 44.1 °F 38.1 °F 23.0 °F 43% 30.06 in 10.0 mi SE 11.5 mph - N/A   Overcast
10:53 AM 50.0 °F - 24.1 °F 36% 30.01 in 10.0 mi South 11.5 mph - N/A   Partly Cloudy
11:53 AM 53.6 °F - 24.8 °F 33% 29.96 in 10.0 mi South 13.8 mph 21.9 mph N/A   Mostly Cloudy
12:53 PM 53.1 °F - 27.0 °F 37% 29.84 in 10.0 mi SSE 15.0 mph 21.9 mph N/A   Mostly Cloudy
1:31 PM 53.6 °F - 28.4 °F 38% 29.86 in 10.0 mi South 9.2 mph 20.7 mph N/A Thunderstorm Thunderstorm
1:39 PM 53.6 °F - 28.4 °F 38% 29.87 in 10.0 mi SSW 11.5 mph - N/A Thunderstorm Thunderstorm
1:53 PM 50.0 °F - 35.1 °F 57% 29.90 in 5.0 mi West 4.6 mph - 0.00 in Rain , Thunderstorm Light Thunderstorms and Rain
1:57 PM 48.2 °F - 37.4 °F 66% 29.90 in 1.8 mi WSW 3.5 mph - 0.04 in Rain , Thunderstorm Heavy Thunderstorms and Rain
2:06 PM 46.4 °F 44.3 °F 39.2 °F 76% 29.89 in 2.0 mi SSW 4.6 mph - 0.11 in Rain Light Rain
2:13 PM 48.2 °F - 39.2 °F 71% 29.84 in 9.0 mi SE 9.2 mph - 0.11 in Rain Light Rain
2:20 PM 46.4 °F 43.5 °F 39.2 °F 76% 29.86 in 10.0 mi SSE 5.8 mph - 0.12 in Rain Light Rain
2:27 PM 48.2 °F - 41.0 °F 76% 29.85 in 8.0 mi SE 3.5 mph - 0.13 in Rain , Thunderstorm Thunderstorms and Rain
2:51 PM 46.4 °F 41.5 °F 41.0 °F 81% 29.84 in 2.0 mi SSE 10.4 mph - 0.26 in Rain , Thunderstorm Heavy Thunderstorms and Rain
2:53 PM 46.0 °F 41.4 °F 41.0 °F 83% 29.84 in 2.0 mi SSE 9.2 mph - 0.27 in Rain , Thunderstorm Thunderstorms and Rain
3:08 PM 44.6 °F - 41.0 °F 87% 29.86 in 4.0 mi Calm Calm - 0.08 in Rain , Thunderstorm Thunderstorms and Rain
3:20 PM 44.6 °F 41.4 °F 41.0 °F 87% 29.85 in 6.0 mi SSE 5.8 mph - 0.11 in Rain Light Rain
3:40 PM 44.6 °F 40.7 °F 42.8 °F 93% 29.90 in 10.0 mi NNW 6.9 mph 18.4 mph 0.11 in Rain Light Rain
3:53 PM 45.0 °F 41.8 °F 42.1 °F 90% 29.86 in 4.0 mi ESE 5.8 mph - 0.17 in Rain Rain
4:15 PM 44.6 °F 40.7 °F 42.8 °F 93% 29.85 in 7.0 mi East 6.9 mph - 0.04 in Rain , Thunderstorm Light Thunderstorms and Rain
4:29 PM 44.6 °F 41.4 °F 42.8 °F 93% 29.85 in 9.0 mi East 5.8 mph - 0.05 in Rain Light Rain
4:53 PM 46.0 °F 41.4 °F 43.0 °F 89% 29.85 in 5.0 mi SE 9.2 mph - 0.13 in Rain , Thunderstorm Light Rain
5:12 PM 46.4 °F 43.5 °F 42.8 °F 87% 29.84 in 10.0 mi ESE 5.8 mph - 0.00 in   Overcast
5:42 PM 46.4 °F 44.3 °F 42.8 °F 87% 29.85 in 10.0 mi East 4.6 mph - 0.00 in   Mostly Cloudy
5:53 PM 46.0 °F 41.9 °F 43.0 °F 89% 29.84 in 10.0 mi SE 8.1 mph - 0.00 in   Overcast
6:53 PM 46.9 °F - 44.1 °F 90% 29.86 in 3.0 mi South 19.6 mph 25.3 mph 0.12 in Rain Heavy Rain
6:57 PM 46.4 °F 39.8 °F 44.6 °F 93% 29.85 in 3.0 mi South 16.1 mph 29.9 mph 0.03 in Rain Heavy Rain
7:22 PM 46.4 °F 41.5 °F 44.6 °F 93% 29.83 in 6.0 mi South 10.4 mph 21.9 mph 0.19 in Rain Rain
7:48 PM 46.4 °F 40.7 °F 44.6 °F 93% 29.80 in 10.0 mi SSE 12.7 mph - 0.23 in   Overcast
7:53 PM 46.9 °F - 45.0 °F 93% 29.80 in 10.0 mi SSE 12.7 mph - 0.23 in   Overcast
8:44 PM 48.2 °F - 46.4 °F 93% 29.82 in 10.0 mi South 8.1 mph - N/A   Overcast
8:53 PM 50.0 °F - 46.9 °F 89% 29.82 in 10.0 mi South 9.2 mph - N/A   Overcast
9:53 PM 50.0 °F - 48.0 °F 93% 29.84 in 10.0 mi South 11.5 mph - N/A   Overcast
10:53 PM 51.1 °F - 48.9 °F 92% 29.86 in 9.0 mi SSW 8.1 mph - N/A   Overcast
11:14 PM 51.8 °F - 50.0 °F 94% 29.87 in 4.0 mi SW 5.8 mph - 0.00 in Rain Light Rain
11:53 PM 52.0 °F - 50.0 °F 93% 29.89 in 5.0 mi SW 5.8 mph - 0.01 in   Overcast